This is the latest recevied weather packets stored in our database for station/object HS5BOG-13. If no packets are shown the sender has not sent any weather packets the latest 10 day(s).
| Time | Temp. | Humidity | Pressure | Rain* | Wind** | Luminosity | Snow |
|---|---|---|---|---|---|---|---|
| 1778236012 | 31.11° C | 55% | 990.1 hPa | - | - | - | - |
| 1778235406 | 31.11° C | 55% | 989.8 hPa | - | - | - | - |
| 1778234801 | 31.11° C | 54% | 989.6 hPa | - | - | - | - |
| 1778234195 | 31.67° C | 53% | 989.4 hPa | - | - | - | - |
| 1778233589 | 31.67° C | 64% | 989.5 hPa | - | - | - | - |
| 1778232984 | 31.67° C | 65% | 989.6 hPa | - | - | - | - |
| 1778232378 | 31.67° C | 66% | 988.7 hPa | - | - | - | - |
| 1778231773 | 31.67° C | 66% | 988.5 hPa | - | - | - | - |
| 1778231167 | 31.67° C | 65% | 988.6 hPa | - | - | - | - |
| 1778230562 | 31.67° C | 66% | 988.5 hPa | - | - | - | - |
| 1778229956 | 31.67° C | 66% | 988.5 hPa | - | - | - | - |
| 1778229350 | 31.67° C | 66% | 988.4 hPa | - | - | - | - |
| 1778228745 | 32.22° C | 67% | 988.6 hPa | - | - | - | - |
| 1778228139 | 32.22° C | 67% | 988.7 hPa | - | - | - | - |
| 1778227533 | 32.22° C | 67% | 988.9 hPa | - | - | - | - |
| 1778226928 | 31.67° C | 66% | 989 hPa | - | - | - | - |
| 1778226322 | 31.67° C | 64% | 989.2 hPa | - | - | - | - |
| 1778225717 | 31.67° C | 63% | 989.3 hPa | - | - | - | - |
| 1778225111 | 31.67° C | 63% | 989.4 hPa | - | - | - | - |
| 1778224506 | 31.67° C | 64% | 989.6 hPa | - | - | - | - |
| 1778223900 | 31.67° C | 63% | 989.8 hPa | - | - | - | - |
| 1778223294 | 31.67° C | 63% | 990.1 hPa | - | - | - | - |
| 1778222689 | 31.67° C | 63% | 990.3 hPa | - | - | - | - |
| 1778222083 | 31.67° C | 61% | 990.5 hPa | - | - | - | - |
| 1778221477 | 31.67° C | 64% | 990.7 hPa | - | - | - | - |
* Rain since midnight (hover to see other rain measurements)
** Current wind speed in m/s (hover to see current wind gust speed)